Flag for U.S.A. Weather past 2 weeks in Carson City, Nevada, U.S.A.

33 °F

Passing clouds.

Feels Like: 24 °F
Forecast: 23 / 33 °F
Wind: 12 mph from Northwest

Location: Reno Tahoe International Airport

Current Time: Nov 24, 2015 at 8:47:38 PM

Latest Report: Nov 24, 2015 at 7:55 PM

Visibility: 10 mi

Pressure: 29.71 "Hg (24.87 "Hg at 1425m altitude)

Humidity: 61%

Dew point: 21 °F

Location of Carson CityLocation

Historic Weather in Carson City — Graph


Carson City temperature yesterday

Maximum temperature yesterday: 59 °F (at 2:55 PM)
Minimum temperature yesterday: 34 °F (at 6:55 AM)
Average temperature yesterday: 44 °F

Past Weeks' High & Low Weather Summary

High64 °F (Nov 19, 3:55 PM)96% (Nov 9, 6:55 PM)30.47 "Hg (Nov 9, 6:55 PM)
Low21 °F (Nov 11, 6:55 AM)22% (Nov 15, 8:55 AM)29.56 "Hg (Nov 15, 1:55 PM)
Average39 °F63%30.13 "Hg
* Reported Nov 9 6:55 PM — Nov 24 6:55 PM, Carson City, Weather by CustomWeather, © 2015

Note: Actual official high and low records may vary slightly from our data, if they occured in-between our weather recording intervals... More about our weather records


Carson City weather history for previous 24 hours

Time TempWeatherWind HumidityBarometerVisibility
6:55 PM
Tue, Nov 24
31 °FLight snow. Partly cloudy.16 mph79%29.75 "Hg6 mi
5:55 PM32 °FLight snow. Partly cloudy.16 mph79%29.70 "Hg6 mi
4:55 PM33 °FPassing clouds.16 mph78%29.68 "Hg10 mi
3:55 PM39 °FLight snow. Partly sunny.13 mph65%29.62 "Hg6 mi
2:55 PM34 °FLight snow. Fog.5 mph92%29.63 "Hg1 mi
1:55 PM40 °FLight rain. Cloudy.20 mph83%29.59 "Hg7 mi
12:55 PM41 °FLight rain. Mostly cloudy.28 mph76%29.59 "Hg10 mi
11:55 AM45 °FLight rain. Broken clouds.28 mph56%29.59 "Hg10 mi
10:55 AM53 °FScattered clouds.29 mph26%29.57 "Hg10 mi
9:55 AM52 °FPassing clouds.37 mph25%29.62 "Hg10 mi
8:55 AM49 °FPassing clouds.23 mph29%29.65 "Hg10 mi
7:55 AM49 °FBroken clouds.5 mph33%29.67 "Hg10 mi
6:55 AM47 °FScattered clouds.9 mph42%29.70 "Hg10 mi
5:55 AM49 °FPassing clouds.12 mph39%29.68 "Hg10 mi
4:55 AM49 °FPassing clouds.16 mph41%29.69 "Hg10 mi
3:55 AM49 °FPassing clouds.8 mph38%29.68 "Hg10 mi
2:55 AM50 °FPassing clouds.21 mph35%29.68 "Hg10 mi
1:55 AM41 °FPassing clouds.7 mph58%29.74 "Hg10 mi
12:55 AM40 °FPassing clouds.12 mph65%29.76 "Hg10 mi
11:55 PM
Mon, Nov 23
41 °FPartly cloudy.3 mph62%29.78 "Hg10 mi
10:55 PM41 °FPartly cloudy.3 mph65%29.83 "Hg10 mi
9:55 PM40 °FPassing clouds.3 mph68%29.85 "Hg10 mi
8:55 PM42 °FPassing clouds.No wind62%29.87 "Hg10 mi
Weather by CustomWeather, © 2015

See weather overviewHow to use our weather pages